Regional Weather Roundup
Issued by NWS

Home | Current Version | Previous Version | Graphics & Text | Print | Product List | Glossary On
Versions: 1 2 3 4 5 6 7 8 9 10 11 12 13 14 15 16 17 18 19 20 21 22 23 24 25 26 27 28 29 30 31 32 33 34 35 36 37 38 39 40 41 42 43 44 45 46 47 48 49 50
000
ASUS45 KBOU 021707
RWRCO

WEATHER ROUNDUP FOR COLORADO
NATIONAL WEATHER SERVICE DENVER/BOULDER CO
1100 AM MDT SAT MAY 02 2015

NOTE: "FAIR" INDICATES FEW OR NO CLOUDS BELOW 12000 FEET WITH NO
SIGNIFICANT WEATHER AND/OR OBSTRUCTIONS TO VISIBILITY.

COZ001>005-013-030-031-021800-
...NORTHWEST COLORADO...

CITY           SKY/WX    TMP DP  RH WIND       PRES   REMARKS
CRAIG          SUNNY     64  38  38 NE6       30.07F
HAYDEN         SUNNY     59  34  38 E5        30.09F
MEEKER         SUNNY     66  35  31 CALM      30.07F
MOUNT WERNER   NOT AVBL
STEAMBOAT SPGS SUNNY     58  35  42 CALM      30.11F
WALDEN         MOSUNNY   55  32  41 SW8       30.15S
$$

COZ006>008-011-021800-
...WEST CENTRAL VALLEYS...

CITY           SKY/WX    TMP DP  RH WIND       PRES   REMARKS
GRAND JUNCTION MOSUNNY   69  36  29 SE10      30.01F
MONTROSE       MOSUNNY   69  32  25 N10       30.06F
EAGLE          NOT AVBL
RIFLE          SUNNY     66  37  34 N3        30.04F
DELTA          MOSUNNY   71  35  26 CALM      30.04F
NUCLA          MOSUNNY   68  30  24 CALM      30.13S
$$

COZ017>023-064>068-021800-
...SOUTHWEST COLORADO...

CITY           SKY/WX    TMP DP  RH WIND       PRES   REMARKS
DURANGO        MOSUNNY   65  32  29 E7        30.14S
CORTEZ         SUNNY     72  30  21 SW8       30.10F
PAGOSA SPRINGS MOSUNNY   65  24  21 SW5       30.19F
TELLURIDE      PTSUNNY   57  22  25 SE8       30.26S
WOLF CREEK PAS NOT AVBL
$$

COZ009-010-012-014-032>034-037-058>063-021800-
...CENTRAL COLORADO...

CITY           SKY/WX    TMP DP  RH WIND       PRES   REMARKS
ASPEN          PTSUNNY   64  29  26 N9        30.13F
BUENA VISTA    NOT AVBL
COPPER MTN     PTSUNNY   45  21  39 W17G31    30.36S
BERTHOUD PASS  PTSUNNY   36  28  75 W30G46    30.36F
COTTONWOOD PAS PTSUNNY   57  30  35 CALM      30.26F
GUNNISON       SUNNY     55  32  41 CALM      30.20F
KREMMLING      SUNNY     54  37  54 CALM      30.17F
LEADVILLE      MOSUNNY   53  23  31 W13G23    30.24S
MONARCH PASS   SUNNY     41  23  48 W25G33    30.48S
SALIDA         SUNNY     63  37  37 SE3       30.21F
SUNLIGHT       MOSUNNY   52  28  40 CALM      30.34S
WILKERSON PASS MOSUNNY   46  30  53 SW5       30.36S
$$

COZ069>075-021800-
...SAN LUIS VALLEY/SANGRE DE CRISTO MOUNTAINS...

CITY           SKY/WX    TMP DP  RH WIND       PRES   REMARKS
ALAMOSA        SUNNY     63  31  30 S6        30.17F
LA VETA PASS   PTSUNNY   52  28  40 MISG      30.32R
SAGUACHE       SUNNY     59  34  38 SE7       30.20F
$$

COZ035-036-038>040-021800-
...NORTHERN COLORADO FRONT RANGE...

CITY           SKY/WX    TMP DP  RH WIND       PRES   REMARKS
DENVER INTL AP PTSUNNY   72  34  24 W6        30.00F
DMNS CITY PARK   N/A     71  34  24 S5        29.99F
AURORA         PTSUNNY   70  37  30 S6        30.02F
FRONT RANGE AP PTSUNNY   72  37  28 NW3       30.02S
ERIE MUNI ARPT PTSUNNY   69  36  29 S5        29.98F
BOULDER MUN AP PTSUNNY   72  37  28 E3        29.98F
CENTENNIAL     PTSUNNY   68  35  29 NW5       30.03S
BROOMFIELD     PTSUNNY   66  39  37 CALM      30.02F
FORT COLLINS   PTSUNNY   66  48  52 SE5       29.99F
LONGMONT       PTSUNNY   72  41  32 S3        29.99F
$$

COZ041-046-047-076>085-087-088-021800-
...PIKES PEAK/PALMER DIVIDE AND SOUTHERN FOOTHILLS...

CITY           SKY/WX    TMP DP  RH WIND       PRES   REMARKS
COLO. SPRINGS  PTSUNNY   71  31  22 W6        30.06F
A. F. ACADEMY  PTSUNNY   69  29  22 VRB3      30.06F
ELLICOTT       PTSUNNY  N/A N/A N/A W3        30.04F
FALCON         PTSUNNY   69  27  20 W9        30.11S
FORT CARSON    PTSUNNY   71  35  27 S5        30.03F
LIMON          MOSUNNY   74  33  22 NW8       30.01S
MONUMENT HILL  PTSUNNY   66  28  24 NW5       30.10R
TRINIDAD       PTSUNNY   67  40  37 W13       30.04S
$$

COZ042>045-048>051-090-091-021800-
...NORTHEAST COLORADO...

CITY           SKY/WX    TMP DP  RH WIND       PRES   REMARKS
GREELEY ARPT   PTSUNNY   64  48  55 CALM      29.98F
AKRON          MOSUNNY   70  49  47 W10       29.96S
BURLINGTON     MOSUNNY   76  46  34 N8        29.94F
WRAY           SUNNY     73  52  46 CALM      29.91F
STERLING       MOSUNNY   72  55  56 S7        29.91F
HOLYOKE        NOT AVBL
FORT MORGAN    NOT AVBL
$$

COZ086-089-092>099-021800-
...SOUTHEAST COLORADO...

CITY           SKY/WX    TMP DP  RH WIND       PRES   REMARKS
PUEBLO         PTSUNNY   73  44  35 W7        29.98F
LA JUNTA       MOSUNNY   75  48  38 W15       29.95F
LAMAR          MOSUNNY   70  55  59 VRB5      29.93F
SPRINGFIELD      N/A     77  45  32 VRB6      29.97S
$$


USA.gov is the U.S. government's official web portal to all federal, state and local government web resources and services.